This demonstration page uses our WeatherBlox Daily Observations layout. Learn more.

Left ArrowRight Arrow

40.92501, -98.34201

Hourly Observations for June 24, 2015

Temp ( °F °C ) Dew Point ( °F °C ) Humidity (%) Winds ( mph kmh ) Pressure ( in mb ) Visibility ( mi km ) Precip ( " mm )
12:53 am 00:53 Clear 64 17.8 58 14.4 81 81 ESE 9 15 30.03 1017 10 16 0.00 0.00
1:53 am 01:53 Mostly Cloudy 64 17.8 57 13.9 78 78 ESE 7 11 30.01 1016 10 16 0.00 0.00
2:53 am 02:53 Mostly Clear 63 17.2 57 13.9 81 81 E 7 11 30.00 1016 10 16 0.00 0.00
3:53 am 03:53 Clear 62 16.7 59 15 90 90 NE 6 9 29.98 1015 10 16 0.00 0.00
4:53 am 04:53 Clear 62 16.7 59 15 90 90 ENE 6 9 29.94 1014 10 16 0.00 0.03
5:53 am 05:53 Clear 61 16.1 60 15.6 97 97 NE 8 13 29.96 1015 10 16 0.00 0.00
6:53 am 06:53 Sunny 62 16.7 61 16.1 96 96 ENE 7 11 29.97 1015 10 16 0.00 0.00
7:22 am 07:22 Mostly Sunny 64 17.8 62 16.7 93 93 E 8 13 29.94 1014 10 16 0.00 0.00
7:36 am 07:36 Mostly Cloudy 64 18 63 17 94 94 E 8 13 29.94 1014 10 16 0.00 0.00
7:53 am 07:53 Mostly Cloudy 65 18.3 63 17.2 93 93 E 7 11 29.98 1015 10 16 0.00 0.00
8:53 am 08:53 Mostly Cloudy 67 19.4 64 17.8 91 91 ESE 7 11 29.96 1015 10 16 0.00 0.00
9:17 am 09:17 Mostly Sunny 68 20 64 17.8 87 87 E 5 7 29.91 1013 10 16 0.00 0.00
9:34 am 09:34 Mostly Cloudy 68 20 64 17.8 87 87 N 10 17 29.97 1015 10 16 0.00 0.00
9:53 am 09:53 Mostly Cloudy 70 21.1 64 17.8 82 82 NNE 12 19 30.01 1016 10 16 0.00 0.00
10:21 am 10:21 Partly Cloudy 72 22.2 65 18.3 79 79 NNW 12 19 29.94 1014 10 16 0.00 0.00
10:53 am 10:53 Partly Cloudy 75 23.9 66 18.9 74 74 N 16 26 30.01 1016 10 16 0.00 0.00
11:23 am 11:23 Mostly Cloudy 75 24 64 18 69 69 NNE 17 28 29.94 1014 10 16 0.00 0.00
11:53 am 11:53 Mostly Cloudy 74 23.3 66 18.9 76 76 NE 15 24 30.01 1016 10 16 0.00 0.00
12:10 pm 12:10 Partly Cloudy 73 23 66 19 78 78 NE 14 22 29.91 1013 10 16 0.00 0.00
12:53 pm 12:53 Partly Cloudy 77 25 66 18.9 69 69 E 17 28 29.96 1015 10 16 0.00 0.00
1:53 pm 13:53 Sunny 81 27.2 67 19.4 62 62 ESE 10 17 29.94 1014 10 16 0.00 0.00
2:53 pm 14:53 Sunny 85 29.4 68 20 57 57 SE 12 19 29.91 1013 10 16 0.00 0.00
3:53 pm 15:53 Sunny 86 30 68 20 55 55 ESE 8 13 29.91 1013 10 16 0.00 0.00
4:53 pm 16:53 Sunny 87 30.6 70 21.1 57 57 ENE 6 9 29.89 1012 10 16 0.00 0.00
5:53 pm 17:53 Sunny 88 31.1 71 21.7 57 57 N 8 13 29.88 1012 10 16 0.00 0.00
6:53 pm 18:53 Sunny 86 30 71 21.7 61 61 NNE 15 24 29.88 1012 10 16 0.00 0.00
7:53 pm 19:53 Sunny 83 28.3 71 21.7 67 67 NNE 15 24 29.89 1012 10 16 0.00 0.00
8:53 pm 20:53 Sunny 78 25.6 70 21.1 76 76 NE 9 15 29.90 1013 10 16 0.00 0.00
9:53 pm 21:53 Clear 75 23.9 70 21.1 84 84 N 6 9 29.91 1013 10 16 0.00 0.00
10:53 pm 22:53 Clear 74 23.3 68 20 82 82 NNE 13 20 29.92 1013 10 16 0.00 0.00
11:53 pm 23:53 Clear 72 22.2 67 19.4 84 84 NNE 8 13 29.95 1014 10 16 0.00 0.00

Powered by AerisWeather